,,Stat6,,Stat2,,Stat8,,Stat9,,Stat10,,Wind1,,Wind1,
time,status,PA1M_AVG,status,PR1M_SUM,status,RH1M_AVG,status,SR1M_AVG,status,TA1M_AVG,status,W1dAve1m,status,W1sAve1m,
2005-11-28, 00:00:00,VALID,918.2,VALID,0,VALID,98.6078,VALID,-0.0339617,VALID,20.0333,VALID,11,VALID,0.596657,
2005-11-28, 00:01:00,VALID,918.183,VALID,0,VALID,98.6816,VALID,-0.0169808,VALID,20.0137,VALID,14,VALID,0.60119,
2005-11-28, 00:02:00,VALID,918.144,VALID,0,VALID,98.7058,VALID,0,VALID,20.0037,VALID,14,VALID,0.540264,
2005-11-28, 00:03:00,VALID,918.128,VALID,0,VALID,98.6727,VALID,-0.0849042,VALID,19.9993,VALID,14,VALID,0.389291,
2005-11-28, 00:04:00,VALID,918.112,VALID,0,VALID,98.8088,VALID,-0.118866,VALID,19.9597,VALID,14,VALID,0.418423,
2005-11-28, 00:05:00,VALID,918.079,VALID,0,VALID,98.9512,VALID,-0.101885,VALID,19.9635,VALID,14,VALID,0.315874,
2005-11-28, 00:06:00,VALID,918.068,VALID,0,VALID,99.1152,VALID,-0.118866,VALID,19.9699,VALID,14,VALID,0.219295,
2005-11-28, 00:07:00,VALID,918.032,VALID,0,VALID,98.9792,VALID,-0.101885,VALID,19.95,VALID,14,VALID,0.0208333,
2005-11-28, 00:08:00,VALID,918.009,VALID,0,VALID,98.9842,VALID,-0.101885,VALID,19.9309,VALID,14,VALID,0,
2005-11-28, 00:09:00,VALID,918.002,VALID,0,VALID,99.0593,VALID,-0.0849042,VALID,19.9312,VALID,14,VALID,0,
2005-11-28, 00:10:00,VALID,918.001,VALID,0,VALID,99.0618,VALID,-0.0679233,VALID,19.9242,VALID,14,VALID,0,
2005-11-28, 00:11:00,VALID,917.999,VALID,0,VALID,98.9118,VALID,-0.0849042,VALID,19.915,VALID,14,VALID,0.143056,
2005-11-28, 00:12:00,VALID,918.003,VALID,0,VALID,98.9614,VALID,-0.135847,VALID,19.9021,VALID,14,VALID,0.207122,
2005-11-28, 00:13:00,VALID,918.005,VALID,0,VALID,98.9601,VALID,-0.101885,VALID,19.8956,VALID,14,VALID,0.307165,
2005-11-28, 00:14:00,VALID,918.013,VALID,0,VALID,98.7236,VALID,-0.101885,VALID,19.8802,VALID,14,VALID,0.417969,
2005-11-28, 00:15:00,VALID,918.018,VALID,0,VALID,98.6511,VALID,-0.101885,VALID,19.8305,VALID,14,VALID,0.509375,
2005-11-28, 00:16:00,VALID,918.015,VALID,0,VALID,98.8584,VALID,-0.101885,VALID,19.8188,VALID,14,VALID,0.653582,
2005-11-28, 00:17:00,VALID,918.003,VALID,0,VALID,99.0872,VALID,-0.101885,VALID,19.7892,VALID,13,VALID,0.468006,
2005-11-28, 00:18:00,VALID,918.007,VALID,0,VALID,99.2564,VALID,-0.0339617,VALID,19.778,VALID,354,VALID,0.531432,
2005-11-28, 00:19:00,VALID,917.984,VALID,0,VALID,99.3784,VALID,-0.0169808,VALID,19.7559,VALID,355,VALID,0.408736,
2005-11-28, 00:20:00,VALID,917.969,VALID,0,VALID,99.5501,VALID,-0.0169808,VALID,19.7397,VALID,355,VALID,0.425223,
2005-11-28, 00:21:00,VALID,917.965,VALID,0,VALID,99.6747,VALID,-0.0339617,VALID,19.7201,VALID,355,VALID,0.30692,
2005-11-28, 00:22:00,VALID,917.956,VALID,0,VALID,99.7548,VALID,-0.0339617,VALID,19.7169,VALID,355,VALID,0.308408,
2005-11-28, 00:23:00,VALID,917.935,VALID,0,VALID,99.8044,VALID,-0.0169808,VALID,19.7101,VALID,355,VALID,0.607013,
2005-11-28, 00:24:00,VALID,917.924,VALID,0,VALID,99.7459,VALID,-0.0169808,VALID,19.7044,VALID,355,VALID,0.661328,
2005-11-28, 00:25:00,VALID,917.907,VALID,0,VALID,99.6989,VALID,-0.0339617,VALID,19.6753,VALID,355,VALID,0.690848,
2005-11-28, 00:26:00,VALID,917.908,VALID,0,VALID,99.7548,VALID,-0.0509425,VALID,19.6555,VALID,10,VALID,0.716406,
2005-11-28, 00:27:00,VALID,917.9,VALID,0,VALID,99.8502,VALID,-0.0849042,VALID,19.6527,VALID,11,VALID,0.673651,
2005-11-28, 00:28:00,VALID,917.903,VALID,0,VALID,99.896,VALID,-0.0169808,VALID,19.6525,VALID,10,VALID,0.582961,
2005-11-28, 00:29:00,VALID,917.918,VALID,0,VALID,99.9074,VALID,0,VALID,19.6557,VALID,10,VALID,0.615734,
2005-11-28, 00:30:00,VALID,917.931,VALID,0,VALID,99.8426,VALID,-0.0339617,VALID,19.6525,VALID,8,VALID,0.799665,
2005-11-28, 00:31:00,VALID,917.937,VALID,0,VALID,99.793,VALID,-0.0339617,VALID,19.646,VALID,360,VALID,0.877976,
2005-11-28, 00:32:00,VALID,917.935,VALID,0,VALID,99.7294,VALID,-0.0169808,VALID,19.6428,VALID,359,VALID,0.71147,
2005-11-28, 00:33:00,VALID,917.918,VALID,0,VALID,99.7828,VALID,0.0339617,VALID,19.6351,VALID,352,VALID,0.618902,
2005-11-28, 00:34:00,VALID,917.931,VALID,0,VALID,99.7866,VALID,0.0509425,VALID,19.6281,VALID,348,VALID,0.603924,
2005-11-28, 00:35:00,VALID,917.936,VALID,0,VALID,99.8693,VALID,0.0849042,VALID,19.6346,VALID,331,VALID,0.66847,
2005-11-28, 00:36:00,VALID,917.94,VALID,0,VALID,99.9842,VALID,0.0679233,VALID,19.6607,VALID,312,VALID,0.485677,
2005-11-28, 00:37:00,VALID,917.947,VALID,0,VALID,100,VALID,0,VALID,19.6903,VALID,306,VALID,0.0909091,
2005-11-28, 00:38:00,VALID,917.971,VALID,0,VALID,100,VALID,0.0339617,VALID,19.7226,VALID,306,VALID,0.000372024,
2005-11-28, 00:39:00,VALID,917.976,VALID,0,VALID,100,VALID,0.0509425,VALID,19.7447,VALID,302,VALID,0.355469,
2005-11-28, 00:40:00,VALID,917.987,VALID,0,VALID,100,VALID,0.0339617,VALID,19.7614,VALID,297,VALID,0.0495427,
2005-11-28, 00:41:00,VALID,917.987,VALID,0,VALID,100,VALID,0.0509425,VALID,19.774,VALID,297,VALID,0.0884766,
2005-11-28, 00:42:00,VALID,917.988,VALID,0,VALID,100,VALID,0.0509425,VALID,19.7835,VALID,297,VALID,0,
2005-11-28, 00:43:00,VALID,917.977,VALID,0,VALID,100,VALID,0.0679233,VALID,19.8063,VALID,297,VALID,0.0323933,
2005-11-28, 00:44:00,VALID,917.986,VALID,0,VALID,100,VALID,0.0509425,VALID,19.829,VALID,297,VALID,0.0582933,
2005-11-28, 00:45:00,VALID,918.007,VALID,0,VALID,99.9929,VALID,0.0339617,VALID,19.8489,VALID,297,VALID,0,
2005-11-28, 00:46:00,VALID,918.012,VALID,0,VALID,99.9329,VALID,0.0509425,VALID,19.8648,VALID,297,VALID,0.0223214,
2005-11-28, 00:47:00,VALID,918.028,VALID,0,VALID,99.929,VALID,0.0339617,VALID,19.8869,VALID,336,VALID,0.307351,
2005-11-28, 00:48:00,VALID,918.023,VALID,0,VALID,99.8388,VALID,-0.0339617,VALID,19.8956,VALID,33,VALID,0.415737,
2005-11-28, 00:49:00,VALID,918.021,VALID,0,VALID,99.9112,VALID,-0.0509425,VALID,19.8824,VALID,33,VALID,0.252907,
2005-11-28, 00:50:00,VALID,918.009,VALID,0,VALID,99.9519,VALID,-0.0509425,VALID,19.8949,VALID,33,VALID,0.25279,
2005-11-28, 00:51:00,VALID,917.999,VALID,0,VALID,99.9354,VALID,-0.0849042,VALID,19.9016,VALID,33,VALID,0.00968071,
2005-11-28, 00:52:00,VALID,917.984,VALID,0,VALID,99.9354,VALID,-0.0849042,VALID,19.8921,VALID,33,VALID,0.0449653,
2005-11-28, 00:53:00,VALID,917.967,VALID,0,VALID,99.9939,VALID,-0.0509425,VALID,19.9048,VALID,33,VALID,0.0983232,
2005-11-28, 00:54:00,VALID,917.947,VALID,0,VALID,100,VALID,-0.0679233,VALID,19.8986,VALID,33,VALID,0.0293403,
2005-11-28, 00:55:00,VALID,917.926,VALID,0,VALID,100,VALID,-0.0679233,VALID,19.9145,VALID,33,VALID,0.00104167,
2005-11-28, 00:56:00,VALID,917.918,VALID,0,VALID,100,VALID,-0.0679233,VALID,19.9279,VALID,33,VALID,0.0993823,
2005-11-28, 00:57:00,VALID,917.901,VALID,0,VALID,100,VALID,-0.0849042,VALID,19.9406,VALID,33,VALID,0.124414,
2005-11-28, 00:58:00,VALID,917.869,VALID,0,VALID,100,VALID,-0.0679233,VALID,19.9374,VALID,33,VALID,0.218936,
2005-11-28, 00:59:00,VALID,917.841,VALID,0,VALID,100,VALID,-0.0509425,VALID,19.9498,VALID,34,VALID,0.123224,
2005-11-28, 01:00:00,VALID,917.831,VALID,0,VALID,100,VALID,-0.0679233,VALID,19.9632,VALID,34,VALID,0,
2005-11-28, 01:01:00,VALID,917.815,VALID,0,VALID,100,VALID,-0.0509425,VALID,19.9597,VALID,34,VALID,0.00507812,
2005-11-28, 01:02:00,VALID,917.789,VALID,0,VALID,100,VALID,-0.0509425,VALID,19.9791,VALID,34,VALID,0.0024858,
2005-11-28, 01:03:00,VALID,917.762,VALID,0,VALID,99.9837,VALID,-0.101885,VALID,19.9953,VALID,38,VALID,0.524926,
2005-11-28, 01:04:00,VALID,917.739,VALID,0,VALID,99.662,VALID,-0.0679233,VALID,19.9824,VALID,31,VALID,0.621795,
2005-11-28, 01:05:00,VALID,917.734,VALID,0,VALID,99.4535,VALID,-0.101885,VALID,20.0149,VALID,314,VALID,0.360795,
2005-11-28, 01:06:00,VALID,917.741,VALID,0,VALID,99.4891,VALID,-0.0169808,VALID,20.0502,VALID,308,VALID,0.329688,
2005-11-28, 01:07:00,VALID,917.71,VALID,0,VALID,99.3365,VALID,-0.0679233,VALID,20.0893,VALID,338,VALID,0.363281,
2005-11-28, 01:08:00,VALID,917.685,VALID,0,VALID,99.0097,VALID,-0.0679233,VALID,20.0858,VALID,338,VALID,0.288035,
2005-11-28, 01:09:00,VALID,917.668,VALID,0,VALID,98.8342,VALID,-0.0169808,VALID,20.0659,VALID,338,VALID,0.376302,
2005-11-28, 01:10:00,VALID,917.64,VALID,0,VALID,98.8367,VALID,-0.0509425,VALID,20.0599,VALID,338,VALID,0.465376,
2005-11-28, 01:11:00,VALID,917.615,VALID,0,VALID,98.7846,VALID,-0.0849042,VALID,20.0371,VALID,357,VALID,0.56141,
2005-11-28, 01:12:00,VALID,917.608,VALID,0,VALID,98.791,VALID,-0.101885,VALID,20.0371,VALID,357,VALID,0.604469,
2005-11-28, 01:13:00,VALID,917.599,VALID,0,VALID,98.7833,VALID,-0.0509425,VALID,20.0139,VALID,8,VALID,0.50372,
2005-11-28, 01:14:00,VALID,917.593,VALID,0,VALID,98.7592,VALID,-0.0679233,VALID,20.0147,VALID,14,VALID,0.71875,
2005-11-28, 01:15:00,VALID,917.593,VALID,0,VALID,98.7503,VALID,-0.0849042,VALID,19.9953,VALID,19,VALID,0.720084,
2005-11-28, 01:16:00,VALID,917.586,VALID,0,VALID,98.7096,VALID,-0.0509425,VALID,20.002,VALID,14,VALID,0.168241,
2005-11-28, 01:17:00,VALID,917.573,VALID,0,VALID,98.6282,VALID,-0.0849042,VALID,19.9921,VALID,14,VALID,0.695117,
2005-11-28, 01:18:00,VALID,917.568,VALID,0,VALID,98.5201,VALID,-0.0339617,VALID,19.9918,VALID,14,VALID,0.700639,
2005-11-28, 01:19:00,VALID,917.554,VALID,0,VALID,98.4896,VALID,-0.0849042,VALID,19.9789,VALID,14,VALID,0.654344,
2005-11-28, 01:20:00,VALID,917.55,VALID,0,VALID,98.5125,VALID,0,VALID,19.9463,VALID,14,VALID,0.628049,
2005-11-28, 01:21:00,VALID,917.556,VALID,0,VALID,98.6091,VALID,-0.0169808,VALID,19.9304,VALID,4,VALID,0.40968,
2005-11-28, 01:22:00,VALID,917.536,VALID,0,VALID,98.7414,VALID,-0.0169808,VALID,19.8914,VALID,350,VALID,0.486861,
2005-11-28, 01:23:00,VALID,917.527,VALID,0,VALID,98.9156,VALID,-0.0169808,VALID,19.872,VALID,350,VALID,0.746094,
2005-11-28, 01:24:00,VALID,917.544,VALID,0,VALID,99.1216,VALID,-0.0169808,VALID,19.8466,VALID,350,VALID,0.350852,
2005-11-28, 01:25:00,VALID,917.528,VALID,0,VALID,99.2856,VALID,-0.0339617,VALID,19.8208,VALID,350,VALID,0.29566,
2005-11-28, 01:26:00,VALID,917.509,VALID,0,VALID,99.3466,VALID,-0.0509425,VALID,19.8041,VALID,339,VALID,0.515262,
2005-11-28, 01:27:00,VALID,917.502,VALID,0,VALID,99.4776,VALID,-0.0339617,VALID,19.8014,VALID,348,VALID,0.0963542,
2005-11-28, 01:28:00,VALID,917.491,VALID,0,VALID,99.6646,VALID,-0.0169808,VALID,19.8235,VALID,348,VALID,0.00093006,
2005-11-28, 01:29:00,VALID,917.483,VALID,0,VALID,99.7523,VALID,-0.0509425,VALID,19.8402,VALID,348,VALID,0,
2005-11-28, 01:30:00,VALID,917.464,VALID,0,VALID,99.793,VALID,-0.0339617,VALID,19.8461,VALID,348,VALID,0.000887784,
2005-11-28, 01:31:00,VALID,917.448,VALID,0,VALID,99.9023,VALID,-0.0339617,VALID,19.8628,VALID,348,VALID,0,
2005-11-28, 01:32:00,VALID,917.434,VALID,0,VALID,99.9941,VALID,-0.0339617,VALID,19.8852,VALID,348,VALID,0.00111607,
2005-11-28, 01:33:00,VALID,917.411,VALID,0,VALID,100,VALID,-0.0169808,VALID,19.9045,VALID,348,VALID,0.0699405,
2005-11-28, 01:34:00,VALID,917.4,VALID,0,VALID,99.9964,VALID,0,VALID,19.9202,VALID,348,VALID,0.0651042,
2005-11-28, 01:35:00,VALID,917.374,VALID,0,VALID,99.8934,VALID,-0.0339617,VALID,19.9366,VALID,358,VALID,0.259146,
2005-11-28, 01:36:00,VALID,917.352,VALID,0,VALID,99.8171,VALID,0,VALID,19.9428,VALID,21,VALID,0.626817,
2005-11-28, 01:37:00,VALID,917.356,VALID,0,VALID,99.8413,VALID,-0.0169808,VALID,19.9528,VALID,22,VALID,0.591025,
2005-11-28, 01:38:00,VALID,917.364,VALID,0,VALID,99.8095,VALID,0.0169808,VALID,19.949,VALID,23,VALID,0.482143,
2005-11-28, 01:39:00,VALID,917.393,VALID,0,VALID,99.8146,VALID,0.0169808,VALID,19.9468,VALID,23,VALID,0.348558,
2005-11-28, 01:40:00,VALID,917.388,VALID,0,VALID,99.9669,VALID,-0.0169808,VALID,19.9326,VALID,23,VALID,0.325076,
2005-11-28, 01:41:00,VALID,917.385,VALID,0,VALID,99.9883,VALID,-0.0169808,VALID,19.9398,VALID,22,VALID,0.534054,
2005-11-28, 01:42:00,VALID,917.365,VALID,0,VALID,100,VALID,0,VALID,19.9463,VALID,354,VALID,0.5,
2005-11-28, 01:43:00,VALID,917.353,VALID,0,VALID,99.8693,VALID,0,VALID,19.917,VALID,323,VALID,0.645833,
2005-11-28, 01:44:00,VALID,917.358,VALID,0,VALID,99.8655,VALID,0,VALID,19.8809,VALID,347,VALID,0.195117,
2005-11-28, 01:45:00,VALID,917.35,VALID,0,VALID,99.9977,VALID,-0.0169808,VALID,19.8946,VALID,347,VALID,0.216332,
2005-11-28, 01:46:00,VALID,917.337,VALID,0,VALID,100,VALID,0,VALID,19.9105,VALID,13,VALID,0.604539,
2005-11-28, 01:47:00,VALID,917.332,VALID,0,VALID,99.925,VALID,0.0169808,VALID,19.8906,VALID,360,VALID,0.398438,
2005-11-28, 01:48:00,VALID,917.329,VALID,0,VALID,99.8375,VALID,0,VALID,19.8849,VALID,326,VALID,0.451562,
2005-11-28, 01:49:00,VALID,917.307,VALID,0,VALID,99.8489,VALID,-0.0169808,VALID,19.869,VALID,323,VALID,0.255609,
2005-11-28, 01:50:00,VALID,917.296,VALID,0,VALID,99.9794,VALID,0,VALID,19.8717,VALID,9,VALID,0.732088,
2005-11-28, 01:51:00,VALID,917.289,VALID,0,VALID,100,VALID,0,VALID,19.8881,VALID,7,VALID,0.512962,
2005-11-28, 01:52:00,VALID,917.282,VALID,0,VALID,100,VALID,-0.0339617,VALID,19.8847,VALID,7,VALID,0.744093,
2005-11-28, 01:53:00,VALID,917.274,VALID,0,VALID,100,VALID,-0.0169808,VALID,19.8722,VALID,11,VALID,0.681141,
2005-11-28, 01:54:00,VALID,917.262,VALID,0,VALID,100,VALID,-0.0169808,VALID,19.8658,VALID,351,VALID,0.908346,
2005-11-28, 01:55:00,VALID,917.249,VALID,0,VALID,100,VALID,0,VALID,19.8302,VALID,5,VALID,1.3231,
2005-11-28, 01:56:00,VALID,917.252,VALID,0,VALID,100,VALID,-0.0169808,VALID,19.7877,VALID,13,VALID,1.39043,
2005-11-28, 01:57:00,VALID,917.251,VALID,0,VALID,100,VALID,-0.0169808,VALID,19.7522,VALID,17,VALID,0.814708,
2005-11-28, 01:58:00,VALID,917.257,VALID,0,VALID,100,VALID,-0.0169808,VALID,19.7231,VALID,19,VALID,0.9758,
2005-11-28, 01:59:00,VALID,917.254,VALID,0,VALID,100,VALID,-0.0339617,VALID,19.7303,VALID,359,VALID,0.881771,
2005-11-28, 02:00:00,VALID,917.239,VALID,0,VALID,100,VALID,-0.0169808,VALID,19.7005,VALID,355,VALID,0.60902,
2005-11-28, 02:01:00,VALID,917.215,VALID,0,VALID,100,VALID,-0.0339617,VALID,19.7047,VALID,11,VALID,0.53418,
2005-11-28, 02:02:00,VALID,917.197,VALID,0,VALID,100,VALID,-0.0169808,VALID,19.7039,VALID,18,VALID,0.37207,
2005-11-28, 02:03:00,VALID,917.182,VALID,0,VALID,100,VALID,-0.0169808,VALID,19.7131,VALID,354,VALID,0.505716,
2005-11-28, 02:04:00,VALID,917.162,VALID,0,VALID,100,VALID,0,VALID,19.7034,VALID,6,VALID,0.580611,
2005-11-28, 02:05:00,VALID,917.133,VALID,0,VALID,100,VALID,0,VALID,19.6945,VALID,342,VALID,0.71439,
2005-11-28, 02:06:00,VALID,917.102,VALID,0,VALID,100,VALID,0,VALID,19.6684,VALID,348,VALID,0.842507,
2005-11-28, 02:07:00,VALID,917.087,VALID,0,VALID,100,VALID,0,VALID,19.6527,VALID,348,VALID,0.524148,
2005-11-28, 02:08:00,VALID,917.062,VALID,0,VALID,100,VALID,-0.0169808,VALID,19.6296,VALID,1,VALID,0.649457,
2005-11-28, 02:09:00,VALID,917.043,VALID,0,VALID,100,VALID,0,VALID,19.6301,VALID,17,VALID,0.736458,
2005-11-28, 02:10:00,VALID,917.057,VALID,0,VALID,100,VALID,-0.0339617,VALID,19.6299,VALID,17,VALID,0.647135,
2005-11-28, 02:11:00,VALID,917.054,VALID,0,VALID,100,VALID,-0.0339617,VALID,19.6269,VALID,358,VALID,0.846576,
2005-11-28, 02:12:00,VALID,917.061,VALID,0,VALID,100,VALID,-0.0169808,VALID,19.6269,VALID,15,VALID,1.04547,
2005-11-28, 02:13:00,VALID,917.054,VALID,0,VALID,100,VALID,-0.0509425,VALID,19.6204,VALID,21,VALID,0.958519,
2005-11-28, 02:14:00,VALID,917.045,VALID,0,VALID,100,VALID,0,VALID,19.6102,VALID,20,VALID,0.618521,
2005-11-28, 02:15:00,VALID,917.026,VALID,0,VALID,100,VALID,0,VALID,19.6107,VALID,17,VALID,1.02139,
2005-11-28, 02:16:00,VALID,917.007,VALID,0,VALID,100,VALID,-0.0169808,VALID,19.6172,VALID,6,VALID,0.640816,
2005-11-28, 02:17:00,VALID,916.992,VALID,0,VALID,100,VALID,-0.0169808,VALID,19.6067,VALID,6,VALID,0.396307,
2005-11-28, 02:18:00,VALID,916.96,VALID,0,VALID,100,VALID,-0.0339617,VALID,19.5975,VALID,6,VALID,0.139353,
2005-11-28, 02:19:00,VALID,916.936,VALID,0,VALID,100,VALID,-0.0339617,VALID,19.601,VALID,6,VALID,0,
2005-11-28, 02:20:00,VALID,916.902,VALID,0,VALID,100,VALID,-0.0509425,VALID,19.6043,VALID,6,VALID,0.0728561,
2005-11-28, 02:21:00,VALID,916.886,VALID,0,VALID,100,VALID,-0.0339617,VALID,19.6077,VALID,6,VALID,0.160061,
2005-11-28, 02:22:00,VALID,916.88,VALID,0,VALID,100,VALID,-0.0169808,VALID,19.5975,VALID,6,VALID,0.0436357,
2005-11-28, 02:23:00,VALID,916.881,VALID,0,VALID,100,VALID,-0.0509425,VALID,19.6013,VALID,6,VALID,0,
2005-11-28, 02:24:00,VALID,916.895,VALID,0,VALID,100,VALID,-0.0339617,VALID,19.5913,VALID,6,VALID,0,
2005-11-28, 02:25:00,VALID,916.902,VALID,0,VALID,100,VALID,-0.0339617,VALID,19.5849,VALID,5,VALID,0.115699,
2005-11-28, 02:26:00,VALID,916.901,VALID,0,VALID,100,VALID,-0.0339617,VALID,19.5719,VALID,353,VALID,0.159455,
2005-11-28, 02:27:00,VALID,916.926,VALID,0,VALID,100,VALID,-0.0169808,VALID,19.5525,VALID,250,VALID,0.321221,
2005-11-28, 02:28:00,VALID,916.941,VALID,0,VALID,100,VALID,-0.0509425,VALID,19.5528,VALID,238,VALID,0.318788,
2005-11-28, 02:29:00,VALID,916.962,VALID,0,VALID,100,VALID,-0.0339617,VALID,19.5299,VALID,224,VALID,0.29581,
2005-11-28, 02:30:00,VALID,916.972,VALID,0,VALID,100,VALID,-0.0509425,VALID,19.5334,VALID,224,VALID,0.279167,
2005-11-28, 02:31:00,VALID,916.964,VALID,0,VALID,100,VALID,0,VALID,19.51,VALID,224,VALID,0.199123,
2005-11-28, 02:32:00,VALID,916.945,VALID,0,VALID,100,VALID,-0.0509425,VALID,19.5103,VALID,224,VALID,0.0241997,
2005-11-28, 02:33:00,VALID,916.929,VALID,0,VALID,100,VALID,0.0509425,VALID,19.5061,VALID,224,VALID,0.183424,
2005-11-28, 02:34:00,VALID,916.93,VALID,0,VALID,100,VALID,0.0679233,VALID,19.5155,VALID,224,VALID,0.0535714,
2005-11-28, 02:35:00,VALID,916.922,VALID,0,VALID,100,VALID,0.101885,VALID,19.522,VALID,224,VALID,0.010016,
2005-11-28, 02:36:00,VALID,916.928,VALID,0,VALID,100,VALID,0.0679233,VALID,19.5188,VALID,224,VALID,0,
2005-11-28, 02:37:00,VALID,916.925,VALID,0,VALID,100,VALID,0.101885,VALID,19.5091,VALID,224,VALID,0.119549,
2005-11-28, 02:38:00,VALID,916.934,VALID,0,VALID,100,VALID,0.101885,VALID,19.486,VALID,224,VALID,0.166211,
2005-11-28, 02:39:00,VALID,916.95,VALID,0,VALID,100,VALID,0.101885,VALID,19.4899,VALID,224,VALID,0.0453125,
2005-11-28, 02:40:00,VALID,916.952,VALID,0,VALID,100,VALID,0.0679233,VALID,19.4835,VALID,224,VALID,0,
2005-11-28, 02:41:00,VALID,916.946,VALID,0,VALID,100,VALID,0.0849042,VALID,19.4835,VALID,224,VALID,0,
2005-11-28, 02:42:00,VALID,916.957,VALID,0,VALID,100,VALID,0.0679233,VALID,19.4869,VALID,224,VALID,0,
2005-11-28, 02:43:00,VALID,916.93,VALID,0,VALID,100,VALID,0.0509425,VALID,19.4869,VALID,224,VALID,0,
2005-11-28, 02:44:00,VALID,916.939,VALID,0,VALID,100,VALID,0.0849042,VALID,19.473,VALID,224,VALID,0,
2005-11-28, 02:45:00,VALID,916.934,VALID,0,VALID,100,VALID,0.0509425,VALID,19.4907,VALID,224,VALID,0,
2005-11-28, 02:46:00,VALID,916.937,VALID,0,VALID,100,VALID,0.0849042,VALID,19.4544,VALID,224,VALID,0,
2005-11-28, 02:47:00,VALID,916.933,VALID,0,VALID,100,VALID,0.0849042,VALID,19.4415,VALID,225,VALID,0.0838415,
2005-11-28, 02:48:00,VALID,916.931,VALID,0,VALID,100,VALID,0,VALID,19.4394,VALID,305,VALID,0.459263,
2005-11-28, 02:49:00,VALID,916.924,VALID,0,VALID,100,VALID,0,VALID,19.4201,VALID,14,VALID,0.533558,
2005-11-28, 02:50:00,VALID,916.904,VALID,0,VALID,100,VALID,0,VALID,19.3942,VALID,12,VALID,0.71548,
2005-11-28, 02:51:00,VALID,916.883,VALID,0,VALID,100,VALID,-0.0169808,VALID,19.3688,VALID,12,VALID,0.634146,
2005-11-28, 02:52:00,VALID,916.877,VALID,0,VALID,100,VALID,0,VALID,19.3266,VALID,12,VALID,0.682706,
2005-11-28, 02:53:00,VALID,916.87,VALID,0,VALID,100,VALID,0,VALID,19.297,VALID,17,VALID,0.447731,
2005-11-28, 02:54:00,VALID,916.872,VALID,0,VALID,100,VALID,0,VALID,19.2774,VALID,18,VALID,0.327344,
2005-11-28, 02:55:00,VALID,916.865,VALID,0,VALID,100,VALID,-0.0169808,VALID,19.2846,VALID,18,VALID,0.281613,
2005-11-28, 02:56:00,VALID,916.839,VALID,0,VALID,100,VALID,-0.0509425,VALID,19.2587,VALID,18,VALID,0.284896,
2005-11-28, 02:57:00,VALID,916.821,VALID,0,VALID,100,VALID,-0.0339617,VALID,19.2398,VALID,32,VALID,0.367788,
2005-11-28, 02:58:00,VALID,916.811,VALID,0,VALID,100,VALID,-0.0339617,VALID,19.2036,VALID,50,VALID,0.466546,
2005-11-28, 02:59:00,VALID,916.817,VALID,0,VALID,100,VALID,-0.0339617,VALID,19.1879,VALID,50,VALID,0.426829,
2005-11-28, 03:00:00,VALID,916.818,VALID,0,VALID,100,VALID,-0.0339617,VALID,19.1784,VALID,51,VALID,0.318859,
2005-11-28, 03:01:00,VALID,916.824,VALID,0,VALID,100,VALID,-0.0509425,VALID,19.165,VALID,51,VALID,0.0695685,
2005-11-28, 03:02:00,VALID,916.81,VALID,0,VALID,100,VALID,-0.0169808,VALID,19.1653,VALID,51,VALID,0.209339,
2005-11-28, 03:03:00,VALID,916.799,VALID,0,VALID,100,VALID,0.0509425,VALID,19.1511,VALID,51,VALID,0.322743,
2005-11-28, 03:04:00,VALID,916.783,VALID,0,VALID,100,VALID,0.101885,VALID,19.1278,VALID,51,VALID,0.382431,
2005-11-28, 03:05:00,VALID,916.762,VALID,0,VALID,100,VALID,0.0849042,VALID,19.1126,VALID,51,VALID,0.383984,
2005-11-28, 03:06:00,VALID,916.738,VALID,0,VALID,100,VALID,0.0679233,VALID,19.1059,VALID,51,VALID,0.386209,
2005-11-28, 03:07:00,VALID,916.724,VALID,0,VALID,100,VALID,0.0509425,VALID,19.086,VALID,51,VALID,0.0443892,
2005-11-28, 03:08:00,VALID,916.697,VALID,0,VALID,100,VALID,0.0509425,VALID,19.0992,VALID,51,VALID,0,
2005-11-28, 03:09:00,VALID,916.682,VALID,0,VALID,100,VALID,0.0339617,VALID,19.1096,VALID,51,VALID,0,
2005-11-28, 03:10:00,VALID,916.669,VALID,0,VALID,100,VALID,0.0509425,VALID,19.1156,VALID,51,VALID,0,
2005-11-28, 03:11:00,VALID,916.644,VALID,0,VALID,100,VALID,0.0679233,VALID,19.1027,VALID,51,VALID,0.154687,
2005-11-28, 03:12:00,VALID,916.641,VALID,0,VALID,100,VALID,0.0509425,VALID,19.0865,VALID,51,VALID,0.0163872,
2005-11-28, 03:13:00,VALID,916.638,VALID,0,VALID,100,VALID,0.0339617,VALID,19.1002,VALID,51,VALID,0,
2005-11-28, 03:14:00,VALID,916.631,VALID,0,VALID,100,VALID,0.0679233,VALID,19.0766,VALID,51,VALID,0,
2005-11-28, 03:15:00,VALID,916.63,VALID,0,VALID,100,VALID,0.0509425,VALID,19.0932,VALID,51,VALID,0,
2005-11-28, 03:16:00,VALID,916.627,VALID,0,VALID,100,VALID,0.0679233,VALID,19.0902,VALID,51,VALID,0,
2005-11-28, 03:17:00,VALID,916.636,VALID,0,VALID,100,VALID,0.0339617,VALID,19.0865,VALID,51,VALID,0,
2005-11-28, 03:18:00,VALID,916.623,VALID,0,VALID,100,VALID,0,VALID,19.1009,VALID,51,VALID,0,
2005-11-28, 03:19:00,VALID,916.628,VALID,0,VALID,100,VALID,-0.0169808,VALID,19.0746,VALID,51,VALID,0,
2005-11-28, 03:20:00,VALID,916.65,VALID,0,VALID,100,VALID,-0.0339617,VALID,19.0658,VALID,51,VALID,0.14082,
2005-11-28, 03:21:00,VALID,916.653,VALID,0,VALID,100,VALID,-0.0509425,VALID,19.0229,VALID,51,VALID,0.115282,
2005-11-28, 03:22:00,VALID,916.649,VALID,0,VALID,100,VALID,-0.0339617,VALID,19.0296,VALID,51,VALID,0,
2005-11-28, 03:23:00,VALID,916.64,VALID,0,VALID,100,VALID,-0.0339617,VALID,19.0263,VALID,51,VALID,0,
2005-11-28, 03:24:00,VALID,916.64,VALID,0,VALID,100,VALID,-0.0339617,VALID,19.0231,VALID,51,VALID,0.0388765,
2005-11-28, 03:25:00,VALID,916.624,VALID,0,VALID,100,VALID,-0.0679233,VALID,19.0363,VALID,51,VALID,0.0025436,
2005-11-28, 03:26:00,VALID,916.64,VALID,0,VALID,100,VALID,-0.0679233,VALID,19.0559,VALID,51,VALID,0,
2005-11-28, 03:27:00,VALID,916.63,VALID,0,VALID,100,VALID,-0.0509425,VALID,19.0651,VALID,51,VALID,0.0137649,
2005-11-28, 03:28:00,VALID,916.616,VALID,0,VALID,100,VALID,-0.0339617,VALID,19.0815,VALID,51,VALID,0,
2005-11-28, 03:29:00,VALID,916.603,VALID,0,VALID,100,VALID,-0.0339617,VALID,19.1143,VALID,51,VALID,0.0170785,
2005-11-28, 03:30:00,VALID,916.58,VALID,0,VALID,100,VALID,-0.0679233,VALID,19.1238,VALID,51,VALID,0.0205305,
2005-11-28, 03:31:00,VALID,916.569,VALID,0,VALID,100,VALID,-0.0169808,VALID,19.1327,VALID,51,VALID,0.0113467,
2005-11-28, 03:32:00,VALID,916.555,VALID,0,VALID,100,VALID,-0.0509425,VALID,19.1429,VALID,51,VALID,0.0619673,
2005-11-28, 03:33:00,VALID,916.562,VALID,0,VALID,100,VALID,-0.0679233,VALID,19.1528,VALID,51,VALID,0,
2005-11-28, 03:34:00,VALID,916.568,VALID,0,VALID,100,VALID,-0.0679233,VALID,19.1498,VALID,51,VALID,0,
2005-11-28, 03:35:00,VALID,916.594,VALID,0,VALID,100,VALID,-0.0339617,VALID,19.1367,VALID,51,VALID,0,
2005-11-28, 03:36:00,VALID,916.612,VALID,0,VALID,100,VALID,-0.0169808,VALID,19.1337,VALID,51,VALID,0.0857639,
2005-11-28, 03:37:00,VALID,916.636,VALID,0,VALID,100,VALID,-0.0679233,VALID,19.1431,VALID,7,VALID,0.437137,
2005-11-28, 03:38:00,VALID,916.628,VALID,0,VALID,100,VALID,-0.0509425,VALID,19.1628,VALID,242,VALID,0.46218,
2005-11-28, 03:39:00,VALID,916.64,VALID,0,VALID,100,VALID,-0.0339617,VALID,19.1628,VALID,232,VALID,0.149503,